Wind_Speed
9 8 8 9 8 8 7 7 7 8 8 9 8 7 7 7 7 6 5 5 5 5 4 5 5 5 6 6 7 7 7 6 6 6 6 6 6 5 5 4 4 4 4 4 4 3 4 4 3
9 9 8 8 8 7 7 7 7 8 8 9 9 8 8 7 7 7 6 5 5 4 4 4 4 5 5 5 6 7 6 6 5 5 6 6 5 5 4 4 3 4 4 3 4 3 3 3 3
9 9 9 8 8 7 7 6 7 7 8 9 9 9 8 7 7 7 6 6 5 5 4 4 4 5 5 5 6 6 6 5 5 5 5 5 4 4 4 3 3 4 4 4 4 3 3 3 4
9 9 9 8 8 7 7 7 8 8 8 8 9 9 8 7 6 6 6 7 6 5 4 4 5 6 5 5 5 4 4 5 5 5 4 4 3 3 3 3 3 3 4 4 4 4 4 4 5
8 9 9 9 8 7 7 7 8 8 8 8 8 8 8 8 7 7 6 7 6 5 5 5 5 5 5 5 4 4 3 4 4 4 4 3 3 3 3 3 3 4 4 4 4 4 4 4 5
8 7 7 6 6 6 6 6 7 7 7 7 6 6 7 7 7 7 7 6 6 5 4 4 4 4 4 4 5 4 4 4 4 4 3 3 3 3 4 3 3 4 4 5 5 5 4 5 5
7 6 6 5 5 5 6 5 6 6 6 6 5 6 6 6 6 6 6 5 5 4 4 4 4 4 4 4 3 3 4 3 3 3 3 3 3 3 4 4 4 4 4 5 5 5 5 5 6
6 6 6 5 5 5 6 5 5 5 6 6 5 5 5 5 5 5 5 5 4 3 3 3 3 3 3 3 3 3 3 3 2 2 3 4 4 4 4 4 4 4 5 5 5 5 5 5 5
6 5 5 5 5 5 5 5 5 5 6 5 5 5 4 4 4 5 5 5 4 3 2 2 1 1 2 2 2 3 2 2 2 1 2 3 4 4 4 4 5 5 5 6 6 7 7 6 6
5 4 4 4 4 5 5 5 5 4 4 4 4 4 4 3 4 4 4 4 3 2 2 1 1 0 1 1 2 2 2 2 2 2 2 2 3 4 4 4 5 6 6 6 6 6 7 7 7
3 4 4 4 4 4 4 4 4 4 4 4 4 4 3 3 4 4 4 4 4 3 3 2 0 1 2 2 2 3 2 2 3 2 2 2 3 4 4 5 5 6 6 5 6 6 7 7 7
2 3 3 3 3 3 3 4 5 4 4 4 5 5 4 3 4 5 5 4 5 4 3 3 0 1 2 1 1 2 3 3 3 2 2 2 3 4 5 5 6 6 6 6 6 7 7 8 8
1 2 2 2 3 3 3 3 4 4 4 4 4 5 5 4 4 5 5 5 5 4 3 2 1 1 1 1 1 1 2 2 3 3 3 3 3 4 4 5 6 7 7 7 7 8 8 8 8
1 0 1 2 2 2 3 3 3 4 3 4 4 3 4 4 4 5 5 5 5 4 3 3 2 2 2 2 2 1 2 3 4 4 4 4 4 5 6 6 6 6 7 7 7 7 8 8 9
2 1 1 2 2 2 2 2 2 3 3 3 3 3 3 3 3 4 4 4 4 4 3 3 3 3 3 3 2 3 4 4 4 5 5 5 6 6 6 6 6 6 7 7 7 7 7 9 9
2 2 2 3 3 2 2 2 2 2 2 3 3 3 3 3 3 3 4 4 3 3 4 3 3 3 4 4 4 4 4 5 5 5 6 6 7 7 7 7 7 7 7 7 7 7 7 8 9
3 3 3 3 3 3 2 2 3 3 2 3 3 3 3 4 3 3 4 4 3 3 4 4 4 5 5 5 5 4 5 6 6 6 7 7 8 8 9 9 8 9 9 8 8 8 9 9 10
5 5 5 4 5 4 4 4 4 4 4 3 3 3 4 4 4 4 4 4 4 4 4 5 5 6 6 6 6 5 5 5 6 6 7 8 8 9 9 9 9 9 9 9 9 9 10 10 10
6 6 6 6 6 6 6 6 6 6 5 5 4 4 4 5 5 5 5 5 5 5 5 6 6 6 7 7 7 6 6 6 7 7 7 7 8 9 9 9 9 9 9 10 10 10 11 11 11
8 7 7 8 8 7 7 6 7 8 7 6 5 5 5 5 6 5 5 5 6 6 6 6 7 7 8 8 8 7 7 8 8 7 7 8 9 9 9 9 9 9 10 10 11 11 12 12 12
8 8 8 9 9 8 8 7 7 8 8 7 7 7 6 6 7 7 7 7 8 7 7 7 8 8 9 9 9 9 9 10 9 9 9 10 10 10 10 10 10 10 10 11 11 11 11 11 11
10 10 9 9 9 9 8 7 8 8 9 9 9 9 8 8 8 9 9 8 9 9 9 9 9 10 10 11 11 10 10 10 10 10 11 11 11 11 11 11 11 11 11 11 12 11 12 12 12
12 12 11 10 10 10 9 8 8 9 9 10 10 11 10 9 9 10 10 9 10 11 11 12 12 11 11 11 11 11 10 11 11 11 12 12 13 13 12 12 12 12 12 12 12 12 12 12 13
13 13 12 11 10 11 11 10 9 10 10 10 11 11 12 11 11 11 11 11 12 12 13 13 13 12 11 11 12 12 12 12 13 12 13 13 13 14 14 13 13 13 13 12 13 13 13 14 14
14 13 12 12 13 13 12 11 11 10 10 11 11 12 12 12 12 12 12 13 13 13 13 13 13 12 12 12 12 13 13 13 13 13 13 13 13 14 14 14 13 13 13 13 14 15 15 15 15
15 14 14 13 14 14 15 13 12 12 12 12 12 12 12 13 13 13 13 13 14 13 13 14 13 13 13 13 13 13 13 13 13 13 13 13 13 13 13 13 13 13 14 14 14 15 16 16 17
17 16 16 15 15 14 15 15 15 14 13 13 13 13 13 13 14 14 14 14 14 14 14 13 13 14 14 14 14 14 14 13 13 13 13 13 13 13 13 14 13 14 15 15 16 16 16 17 17
19 18 17 17 17 16 16 16 15 15 14 14 14 14 14 14 14 15 14 15 16 15 14 14 14 14 14 14 14 15 15 15 14 14 14 14 14 15 14 14 14 15 15 16 17 17 18 18 18
20 20 19 18 18 17 17 17 17 15 15 15 15 15 15 14 14 14 15 15 16 15 15 15 15 15 15 15 15 16 16 16 16 17 16 16 16 16 15 16 16 17 17 17 18 18 18 19 19
22 22 20 20 20 19 18 18 17 17 16 16 16 16 16 16 15 14 15 15 15 16 16 16 16 17 17 16 17 17 18 17 17 17 18 18 18 18 18 19 19 19 19 19 20 20 20 20 20
Wind_Direction
96 96 93 92 86 79 79 80 79 81 81 76 75 77 79 81 81 79 82 85 89 98 106 114 119 126 126 124 130 139 140 137 135 139 146 146 150 151 156 163 169 174 173 171 179 178 186 185 190
96 96 93 91 87 86 82 77 76 82 77 75 74 75 77 78 77 77 83 86 93 100 101 104 116 128 134 132 138 145 142 144 141 142 149 151 153 158 165 171 176 176 180 185 188 195 185 184 194
93 91 89 86 86 90 86 78 79 79 77 75 73 73 73 75 76 79 81 80 91 99 103 107 116 129 129 131 136 145 149 149 143 141 145 151 157 159 164 178 182 176 191 204 211 212 205 206 209
94 92 89 86 82 85 85 86 88 86 83 79 75 72 71 73 76 80 83 82 87 95 105 113 118 125 129 131 133 138 150 155 150 145 148 153 159 162 167 181 192 192 196 211 220 219 214 217 227
95 90 83 80 81 86 90 90 90 90 87 79 75 73 71 70 74 73 76 82 83 86 90 101 119 125 130 131 135 132 143 150 156 160 165 172 173 178 188 185 206 209 208 214 224 220 225 231 236
92 88 84 85 87 84 94 92 87 86 83 77 74 73 68 64 67 65 68 78 83 87 89 102 121 128 131 132 139 140 142 145 160 176 178 179 190 194 200 206 221 222 223 226 232 231 236 240 243
89 88 88 91 85 83 88 84 80 77 73 71 70 68 65 61 67 65 59 64 76 88 96 106 126 134 137 137 143 154 150 153 164 178 188 199 201 211 214 219 226 227 230 240 247 248 250 247 248
91 90 92 91 82 78 80 80 73 70 67 65 66 64 64 60 62 59 53 52 59 73 94 118 134 147 151 147 145 160 154 162 171 183 204 215 219 222 222 224 230 236 237 244 248 248 251 255 253
91 93 95 94 86 80 76 75 71 69 68 69 67 58 64 70 59 51 50 47 51 64 85 108 143 167 173 177 180 179 175 184 194 202 210 215 219 218 227 232 237 245 247 249 253 252 256 260 261
94 95 93 89 82 79 74 69 70 66 68 72 67 57 63 68 59 52 44 38 43 57 74 77 75 144 205 217 208 205 211 216 228 230 215 208 216 228 243 247 249 254 257 255 256 259 259 259 259
99 86 79 79 77 75 63 59 59 65 67 62 52 48 55 57 54 51 48 47 46 44 44 28 357 216 224 235 230 229 229 233 240 239 228 231 238 240 248 254 258 260 261 259 260 260 256 257 258
83 76 70 77 74 69 56 55 57 56 55 55 45 35 32 40 38 39 35 33 31 34 32 21 40 221 234 239 252 247 248 249 245 242 241 254 264 259 257 258 259 259 260 260 259 257 258 263 262
83 76 66 63 58 59 43 44 46 44 50 48 42 36 31 39 39 36 36 31 35 36 33 21 357 317 268 261 265 277 264 251 242 246 261 274 275 269 268 268 261 260 263 263 263 261 262 266 268
164 92 19 15 15 22 25 30 34 36 39 37 38 35 31 32 32 32 32 30 31 32 27 18 2 338 310 308 285 294 293 277 273 271 271 277 280 278 274 273 271 265 265 266 264 271 268 267 271
208 219 279 316 325 344 355 8 2 16 26 32 29 27 17 16 12 11 13 16 14 15 15 17 10 355 331 323 309 299 299 291 286 281 279 278 280 281 280 278 275 273 271 267 269 269 271 267 272
221 223 280 289 294 305 310 305 297 320 355 7 6 3 353 350 349 350 353 358 2 2 1 2 356 343 335 331 318 295 284 286 290 285 282 281 279 280 281 285 287 281 277 274 270 268 272 271 270
238 236 253 271 278 289 294 277 272 279 306 329 341 337 326 329 330 337 336 336 341 342 343 347 334 328 325 323 318 308 292 287 289 285 285 287 284 282 285 288 290 286 282 278 272 269 269 270 269
234 233 246 267 276 282 287 281 276 277 284 300 314 319 316 321 310 308 311 315 318 320 326 330 327 324 320 322 314 305 302 302 300 293 288 286 288 286 288 288 289 287 281 277 274 271 273 273 271
240 244 252 269 278 284 284 280 278 278 276 282 293 301 307 311 307 300 297 302 304 306 312 318 318 319 316 319 319 304 300 299 302 300 294 292 292 290 290 291 290 288 282 280 277 276 277 277 277
245 248 259 271 278 282 283 282 281 276 271 273 279 286 296 302 300 299 299 298 298 300 302 306 308 309 309 311 313 304 296 293 293 293 293 295 295 292 290 291 290 290 286 281 281 280 278 278 278
245 248 258 270 279 282 279 281 281 271 265 268 275 284 292 295 292 295 301 299 300 297 296 298 299 300 303 307 306 302 298 295 293 287 286 290 294 293 287 285 284 286 286 283 283 282 279 283 282
246 252 259 269 275 281 277 269 276 271 266 268 275 283 288 289 289 291 292 293 296 297 295 296 298 301 301 302 304 300 298 298 295 288 287 289 293 292 284 285 284 284 285 285 285 284 283 283 282
243 250 259 265 271 275 276 267 269 276 272 273 277 281 281 284 286 289 289 291 295 297 297 298 298 299 299 301 302 302 297 297 299 297 294 292 292 290 284 283 284 284 285 284 284 284 284 285 284
246 251 260 266 267 270 273 268 261 271 276 279 278 279 278 280 283 287 288 289 292 296 297 298 296 297 296 296 297 299 297 296 295 295 294 295 294 291 286 280 281 282 282 281 282 283 284 286 286
247 251 259 263 264 269 274 269 264 269 270 275 276 276 277 279 282 286 287 288 291 294 296 298 299 295 294 293 293 297 299 298 293 294 295 295 296 294 288 281 278 280 280 279 280 281 282 284 284
246 247 251 256 263 269 277 272 272 273 271 273 274 273 278 281 285 287 289 288 289 293 295 297 297 296 295 292 292 295 297 299 296 295 296 297 297 296 296 290 284 281 279 278 279 282 282 284 283
246 248 252 257 262 265 270 276 275 273 273 274 272 274 276 281 284 286 288 290 289 290 292 294 293 295 296 294 291 291 295 298 299 296 295 295 296 296 294 290 290 291 285 280 278 281 282 286 285
246 250 255 255 257 263 269 273 275 274 273 274 275 277 280 283 284 284 286 290 291 290 289 291 293 294 294 293 292 290 292 292 295 296 296 296 295 294 294 290 288 293 292 289 285 284 283 284 284
247 248 250 255 257 261 268 271 274 272 273 278 279 279 282 283 284 285 286 288 288 287 287 287 288 288 288 288 288 288 289 292 291 290 293 295 295 295 294 293 291 291 290 289 288 288 289 288 285
247 249 252 255 260 262 265 269 272 274 272 275 276 276 277 279 281 285 286 286 286 286 286 286 285 286 286 286 286 286 287 290 294 292 291 292 292 292 291 290 290 289 288 289 287 284 284 286 286
Height
5899 5899 5899 5900 5900 5900 5899 5898 5897 5896 5895 5894 5893 5893 5892 5892 5892 5894 5890 5888 5888 5888 5887 5887 5887 5886 5887 5887 5887 5887 5887 5888 5888 5888 5888 5889 5889 5889 5889 5889 5890 5890 5890 5890 5891 5891 5891 5891 5891
5900 5900 5901 5901 5901 5901 5900 5899 5898 5897 5896 5895 5894 5893 5893 5892 5892 5891 5889 5889 5889 5888 5888 5888 5887 5887 5887 5887 5887 5887 5887 5888 5888 5889 5889 5889 5889 5889 5889 5889 5889 5890 5890 5890 5890 5891 5890 5891 5891
5901 5902 5902 5902 5902 5902 5901 5900 5899 5897 5896 5896 5895 5895 5894 5893 5892 5891 5890 5889 5889 5889 5888 5888 5888 5888 5888 5888 5888 5887 5888 5888 5889 5889 5889 5889 5889 5889 5889 5889 5889 5889 5890 5890 5890 5890 5890 5890 5890
5903 5904 5904 5904 5903 5902 5902 5901 5899 5898 5897 5897 5896 5895 5894 5893 5892 5892 5891 5890 5889 5889 5888 5888 5888 5888 5888 5888 5888 5888 5888 5888 5888 5889 5889 5889 5889 5889 5889 5889 5889 5889 5889 5889 5889 5890 5890 5890 5890
5904 5905 5905 5905 5904 5903 5902 5901 5900 5900 5899 5898 5897 5896 5895 5894 5893 5892 5891 5890 5890 5889 5889 5889 5889 5889 5889 5888 5888 5888 5888 5888 5889 5889 5889 5888 5888 5888 5888 5888 5889 5889 5889 5889 5889 5889 5889 5889 5889
5906 5906 5907 5907 5906 5905 5903 5902 5901 5900 5900 5899 5898 5897 5896 5895 5894 5893 5892 5891 5890 5890 5889 5889 5889 5889 5889 5889 5889 5889 5888 5889 5889 5889 5889 5888 5888 5888 5888 5888 5888 5888 5888 5888 5888 5887 5888 5888 5888
5908 5907 5907 5907 5906 5905 5904 5903 5902 5901 5900 5899 5899 5898 5897 5896 5894 5894 5893 5892 5891 5890 5890 5889 5889 5889 5889 5889 5889 5889 5888 5888 5888 5888 5888 5888 5888 5887 5888 5888 5887 5887 5887 5887 5887 5887 5887 5887 5887
5908 5909 5909 5908 5907 5906 5905 5904 5903 5902 5900 5900 5899 5899 5898 5897 5896 5895 5893 5892 5892 5891 5890 5889 5889 5889 5889 5889 5889 5888 5888 5888 5888 5888 5888 5887 5887 5887 5887 5887 5887 5886 5886 5886 5886 5886 5886 5886 5886
5909 5911 5910 5909 5908 5907 5905 5904 5903 5902 5901 5900 5900 5899 5899 5897 5896 5895 5894 5893 5892 5891 5890 5890 5889 5889 5889 5889 5888 5888 5888 5888 5888 5887 5886 5886 5886 5887 5886 5886 5886 5886 5886 5885 5885 5885 5885 5885 5885
5910 5910 5910 5909 5908 5907 5906 5905 5904 5903 5902 5902 5901 5900 5899 5898 5897 5896 5894 5893 5892 5891 5890 5890 5889 5889 5889 5889 5888 5888 5888 5888 5887 5887 5886 5886 5886 5886 5886 5885 5885 5885 5884 5884 5884 5884 5884 5883 5883
5910 5910 5909 5908 5908 5907 5906 5905 5904 5903 5903 5902 5901 5901 5900 5899 5898 5896 5895 5893 5892 5891 5890 5890 5889 5889 5889 5888 5888 5888 5887 5887 5887 5886 5886 5886 5885 5885 5885 5885 5884 5884 5883 5883 5883 5882 5882 5882 5882
5910 5910 5909 5909 5908 5907 5906 5906 5905 5904 5903 5902 5902 5901 5900 5899 5898 5897 5895 5894 5893 5892 5891 5890 5889 5889 5889 5888 5888 5887 5887 5886 5886 5886 5885 5885 5885 5884 5884 5883 5883 5883 5882 5882 5881 5881 5881 5881 5881
5911 5910 5910 5909 5908 5908 5907 5906 5905 5904 5903 5902 5902 5901 5900 5899 5898 5897 5896 5895 5893 5892 5891 5890 5890 5889 5889 5888 5888 5887 5886 5886 5885 5885 5885 5884 5884 5883 5883 5882 5882 5881 5881 5880 5880 5880 5879 5879 5879
5910 5910 5910 5909 5908 5908 5907 5906 5905 5904 5903 5903 5902 5902 5901 5900 5899 5898 5896 5895 5894 5893 5892 5891 5890 5889 5889 5888 5887 5887 5886 5885 5885 5884 5884 5883 5883 5882 5882 5881 5880 5880 5879 5879 5879 5878 5878 5877 5877
5910 5910 5910 5909 5908 5908 5908 5907 5905 5904 5903 5903 5902 5902 5901 5900 5899 5898 5897 5896 5894 5893 5892 5891 5890 5889 5888 5888 5887 5886 5885 5885 5884 5883 5883 5882 5882 5881 5880 5880 5879 5878 5878 5878 5877 5876 5876 5875 5875
5909 5910 5910 5910 5908 5908 5909 5908 5906 5904 5904 5903 5903 5902 5901 5900 5899 5898 5897 5896 5894 5893 5892 5891 5890 5889 5888 5887 5886 5885 5884 5884 5883 5882 5882 5881 5880 5880 5879 5878 5878 5877 5876 5876 5875 5875 5874 5874 5873
5909 5910 5910 5910 5908 5907 5907 5907 5906 5905 5904 5903 5902 5902 5901 5900 5899 5897 5896 5895 5894 5893 5892 5891 5890 5889 5888 5887 5885 5884 5883 5883 5882 5881 5880 5879 5879 5878 5877 5877 5876 5875 5875 5874 5873 5873 5872 5872 5871
5909 5909 5909 5909 5908 5907 5906 5906 5905 5904 5904 5903 5902 5901 5901 5900 5898 5897 5896 5895 5893 5893 5892 5891 5889 5888 5887 5886 5884 5883 5882 5881 5880 5880 5879 5878 5877 5876 5875 5875 5874 5873 5872 5872 5871 5871 5870 5870 5869
5907 5907 5908 5907 5907 5906 5905 5905 5905 5904 5903 5903 5902 5901 5900 5899 5898 5896 5895 5894 5893 5892 5891 5890 5889 5887 5886 5885 5883 5882 5881 5880 5879 5878 5877 5876 5875 5874 5873 5872 5871 5870 5870 5869 5869 5868 5868 5868 5867
5905 5906 5906 5906 5905 5905 5904 5904 5903 5903 5902 5902 5901 5900 5899 5898 5897 5896 5894 5893 5892 5891 5890 5889 5887 5886 5885 5883 5882 5881 5879 5878 5877 5876 5875 5874 5873 5872 5870 5870 5869 5868 5867 5867 5866 5866 5865 5865 5864
5903 5904 5904 5904 5903 5903 5903 5903 5902 5901 5900 5900 5900 5899 5898 5897 5896 5895 5893 5892 5891 5890 5889 5887 5886 5885 5883 5882 5880 5879 5878 5876 5875 5874 5873 5872 5870 5869 5868 5867 5866 5866 5865 5864 5864 5863 5863 5862 5862
5901 5902 5902 5902 5901 5902 5902 5902 5901 5899 5899 5898 5898 5897 5896 5895 5894 5893 5892 5890 5889 5888 5887 5885 5884 5883 5881 5880 5878 5877 5875 5874 5872 5871 5870 5869 5868 5867 5866 5865 5864 5863 5862 5861 5861 5860 5860 5860 5859
5898 5899 5899 5899 5899 5899 5899 5900 5901 5898 5897 5896 5896 5895 5894 5893 5892 5891 5890 5889 5888 5886 5885 5883 5882 5880 5879 5877 5876 5874 5873 5872 5870 5868 5867 5866 5865 5864 5863 5862 5861 5860 5860 5859 5858 5857 5857 5856 5856
5894 5896 5896 5896 5896 5897 5897 5897 5898 5896 5895 5894 5893 5892 5892 5891 5890 5889 5888 5886 5885 5884 5882 5880 5879 5878 5876 5875 5873 5872 5871 5869 5868 5866 5864 5863 5862 5861 5859 5859 5858 5857 5857 5856 5855 5854 5854 5853 5852
5891 5893 5895 5895 5895 5895 5894 5893 5895 5893 5892 5892 5891 5890 5889 5888 5887 5887 5885 5884 5882 5881 5879 5878 5876 5875 5874 5872 5871 5870 5868 5866 5864 5863 5862 5860 5859 5858 5856 5855 5855 5854 5853 5852 5851 5851 5850 5849 5849
5887 5890 5892 5893 5893 5893 5891 5890 5892 5890 5889 5888 5888 5887 5886 5885 5884 5884 5882 5881 5879 5878 5876 5875 5873 5872 5871 5869 5868 5867 5865 5863 5862 5861 5859 5857 5856 5854 5853 5852 5851 5850 5850 5849 5848 5847 5846 5845 5844
5883 5885 5887 5888 5888 5888 5888 5887 5887 5886 5885 5885 5884 5884 5883 5882 5881 5880 5879 5877 5876 5874 5873 5871 5870 5869 5867 5866 5865 5863 5862 5861 5859 5857 5856 5854 5853 5851 5849 5848 5848 5846 5846 5845 5844 5843 5842 5841 5840
5879 5880 5882 5882 5883 5884 5884 5884 5884 5882 5882 5881 5880 5880 5879 5878 5877 5876 5875 5874 5872 5871 5869 5868 5867 5866 5864 5863 5861 5860 5859 5857 5856 5854 5853 5851 5849 5848 5846 5845 5844 5843 5842 5841 5840 5839 5838 5837 5836
5874 5875 5876 5878 5878 5880 5880 5882 5879 5878 5877 5877 5876 5876 5875 5874 5873 5872 5871 5870 5868 5867 5866 5865 5863 5862 5861 5859 5858 5857 5855 5853 5852 5851 5849 5847 5846 5844 5843 5841 5840 5839 5838 5837 5836 5835 5833 5832 5831
5869 5870 5872 5874 5873 5873 5875 5878 5874 5873 5873 5872 5872 5871 5871 5870 5869 5868 5867 5865 5864 5863 5862 5860 5859 5858 5857 5855 5854 5853 5851 5849 5848 5846 5845 5843 5842 5841 5839 5838 5836 5835 5833 5832 5831 5830 5829 5828 5827